When you browse on this site, cookies collect data to enhance your experience and personalize the content and advertising you see.
Visit our Privacy Policy to learn more. By continuing to use the site, you agree to this use of cookies and data.
  • în România
  • Lista ţărilor
  • Pe 7 zile
  • Temperatura apei
  • Meteo pe hartă
  • Widget-uri
  • user-avatar
    Intrare

    Meteo pe oră la Bahawalpur

    Astăzi, 31 Mai, Duminică

    Timp Temperatura Precipitaţii Vânt Presiune Umiditate
    00:00 +32°C° 0 mm 2 m/s 743 mmHg 41%
    01:00 +32°C° 0 mm 2 m/s 743 mmHg 42%
    02:00 +32°C° 0 mm 2 m/s 743 mmHg 43%
    03:00 +32°C° 0 mm 2 m/s 743 mmHg 44%
    04:00 +32°C° 0 mm 2 m/s 743 mmHg 45%
    05:00 +31°C° 0 mm 1 m/s 743 mmHg 46%
    06:00 +32°C° 0 mm 1 m/s 744 mmHg 44%
    07:00 +33°C° 0 mm 1 m/s 744 mmHg 42%
    08:00 +34°C° 0 mm 2 m/s 744 mmHg 40%
    09:00 +35°C° 0 mm 1 m/s 744 mmHg 36%
    10:00 +36°C° 0 mm 1 m/s 744 mmHg 32%
    11:00 +39°C° 0 mm 1 m/s 744 mmHg 28%
    12:00 +40°C° 0 mm 1 m/s 743 mmHg 26%
    13:00 +41°C° 0 mm 1 m/s 743 mmHg 24%
    14:00 +42°C° 0 mm 1 m/s 742 mmHg 22%
    15:00 +42°C° 0 mm 1 m/s 742 mmHg 21%
    16:00 +42°C° 0 mm 1 m/s 742 mmHg 20%
    17:00 +43°C° 0 mm 2 m/s 741 mmHg 19%
    18:00 +42°C° 0.2 mm 2 m/s 742 mmHg 20%
    19:00 +42°C° 0.2 mm 3 m/s 742 mmHg 22%
    20:00 +41°C° 0.2 mm 4 m/s 743 mmHg 23%
    21:00 +39°C° 0.3 mm 3 m/s 743 mmHg 23%
    22:00 +38°C° 0.3 mm 3 m/s 743 mmHg 23%
    23:00 +37°C° 0.3 mm 2 m/s 743 mmHg 23%

    Mâine, 1 Iunie, Luni

    Timp Temperatura Precipitaţii Vânt Presiune Umiditate
    00:00 +36°C° 0 mm 2 m/s 743 mmHg 24%
    01:00 +35°C° 0 mm 1 m/s 743 mmHg 26%
    02:00 +35°C° 0 mm 1 m/s 743 mmHg 27%
    03:00 +34°C° 0 mm 1 m/s 743 mmHg 28%
    04:00 +35°C° 0 mm 2 m/s 743 mmHg 29%
    05:00 +34°C° 0 mm 3 m/s 743 mmHg 30%
    06:00 +35°C° 0 mm 3 m/s 743 mmHg 28%
    07:00 +36°C° 0 mm 2 m/s 743 mmHg 26%
    08:00 +37°C° 0 mm 2 m/s 744 mmHg 24%
    09:00 +38°C° 0 mm 2 m/s 744 mmHg 23%
    10:00 +39°C° 0 mm 1 m/s 744 mmHg 22%
    11:00 +38°C° 0 mm 0 m/s 744 mmHg 21%
    12:00 +42°C° 0 mm 1 m/s 743 mmHg 20%
    13:00 +43°C° 0 mm 1 m/s 743 mmHg 19%
    14:00 +43°C° 0 mm 1 m/s 742 mmHg 18%
    15:00 +44°C° 0 mm 1 m/s 742 mmHg 17%
    16:00 +44°C° 0 mm 1 m/s 741 mmHg 16%
    17:00 +45°C° 0 mm 2 m/s 741 mmHg 15%
    18:00 +45°C° 0 mm 2 m/s 741 mmHg 16%
    19:00 +43°C° 0 mm 2 m/s 741 mmHg 17%
    20:00 +43°C° 0 mm 2 m/s 741 mmHg 17%
    21:00 +42°C° 0.1 mm 2 m/s 741 mmHg 18%
    22:00 +41°C° 0.1 mm 2 m/s 742 mmHg 20%
    23:00 +41°C° 0.1 mm 1 m/s 742 mmHg 21%

    Poimâine, 2 Iunie, Marţi

    Timp Temperatura Precipitaţii Vânt Presiune Umiditate
    00:00 +40°C° 0.1 mm 3 m/s 742 mmHg 24%
    01:00 +40°C° 0.1 mm 4 m/s 741 mmHg 26%
    02:00 +39°C° 0.1 mm 6 m/s 741 mmHg 29%
    03:00 +37°C° 0 mm 5 m/s 741 mmHg 32%
    04:00 +36°C° 0 mm 4 m/s 741 mmHg 35%
    05:00 +36°C° 0 mm 3 m/s 741 mmHg 37%
    06:00 +37°C° 0 mm 4 m/s 742 mmHg 37%
    07:00 +39°C° 0 mm 5 m/s 742 mmHg 37%
    08:00 +40°C° 0 mm 5 m/s 742 mmHg 37%
    09:00 +41°C° 0 mm 5 m/s 742 mmHg 33%
    10:00 +43°C° 0 mm 5 m/s 742 mmHg 29%
    11:00 +44°C° 0 mm 4 m/s 742 mmHg 24%
    12:00 +45°C° 0 mm 4 m/s 742 mmHg 22%
    13:00 +47°C° 0 mm 4 m/s 741 mmHg 19%
    14:00 +48°C° 0 mm 4 m/s 741 mmHg 17%
    15:00 +45°C° 0.4 mm 7 m/s 740 mmHg 24%
    16:00 +42°C° 0.4 mm 11 m/s 739 mmHg 30%
    17:00 +38°C° 0.4 mm 14 m/s 739 mmHg 37%
    18:00 +39°C° 0.3 mm 12 m/s 739 mmHg 33%
    19:00 +39°C° 0.3 mm 9 m/s 740 mmHg 29%
    20:00 +40°C° 0.3 mm 6 m/s 741 mmHg 25%
    21:00 +40°C° 0.2 mm 6 m/s 741 mmHg 25%
    22:00 +39°C° 0.2 mm 5 m/s 741 mmHg 25%
    23:00 +38°C° 0.2 mm 4 m/s 741 mmHg 26%

    3 Iunie, Miercuri

    Timp Temperatura Precipitaţii Vânt Presiune Umiditate
    00:00 +38°C° 0 mm 4 m/s 741 mmHg 26%
    01:00 +37°C° 0 mm 4 m/s 740 mmHg 26%
    02:00 +37°C° 0 mm 4 m/s 740 mmHg 27%
    03:00 +37°C° 0.1 mm 3 m/s 740 mmHg 29%
    04:00 +36°C° 0.1 mm 2 m/s 740 mmHg 32%
    05:00 +35°C° 0.1 mm 1 m/s 740 mmHg 34%
    06:00 +36°C° 0 mm 2 m/s 741 mmHg 36%
    07:00 +37°C° 0 mm 4 m/s 741 mmHg 38%
    08:00 +39°C° 0 mm 6 m/s 741 mmHg 40%
    09:00 +40°C° 0 mm 5 m/s 741 mmHg 37%
    10:00 +41°C° 0 mm 5 m/s 741 mmHg 33%
    11:00 +42°C° 0 mm 4 m/s 741 mmHg 30%
    12:00 +43°C° 0 mm 3 m/s 740 mmHg 27%
    13:00 +44°C° 0 mm 3 m/s 740 mmHg 24%
    14:00 +45°C° 0 mm 3 m/s 739 mmHg 20%
    15:00 +46°C° 0 mm 3 m/s 739 mmHg 19%
    16:00 +46°C° 0 mm 3 m/s 738 mmHg 18%
    17:00 +47°C° 0 mm 4 m/s 737 mmHg 16%
    18:00 +44°C° 0.7 mm 4 m/s 738 mmHg 21%
    19:00 +41°C° 0.7 mm 5 m/s 739 mmHg 26%
    20:00 +37°C° 0.7 mm 5 m/s 740 mmHg 31%
    21:00 +35°C° 0.6 mm 6 m/s 741 mmHg 39%
    22:00 +33°C° 0.6 mm 7 m/s 741 mmHg 46%
    23:00 +30°C° 0.6 mm 7 m/s 741 mmHg 54%

    4 Iunie, Joi

    Timp Temperatura Precipitaţii Vânt Presiune Umiditate
    00:00 +32°C° 0.2 mm 5 m/s 741 mmHg 49%
    01:00 +33°C° 0.2 mm 3 m/s 740 mmHg 44%
    02:00 +34°C° 0.2 mm 2 m/s 740 mmHg 39%
    03:00 +33°C° 0.1 mm 3 m/s 740 mmHg 40%
    04:00 +33°C° 0.1 mm 4 m/s 740 mmHg 42%
    05:00 +33°C° 0.1 mm 6 m/s 740 mmHg 43%
    06:00 +34°C° 0 mm 5 m/s 740 mmHg 41%
    07:00 +35°C° 0 mm 3 m/s 740 mmHg 40%
    08:00 +35°C° 0 mm 2 m/s 740 mmHg 38%
    09:00 +37°C° 0 mm 2 m/s 741 mmHg 36%
    10:00 +38°C° 0 mm 2 m/s 741 mmHg 34%
    11:00 +39°C° 0 mm 2 m/s 741 mmHg 32%
    12:00 +39°C° 0 mm 2 m/s 741 mmHg 30%
    13:00 +40°C° 0 mm 2 m/s 740 mmHg 28%
    14:00 +42°C° 0 mm 3 m/s 740 mmHg 27%
    15:00 +42°C° 0 mm 3 m/s 739 mmHg 27%
    16:00 +42°C° 0 mm 4 m/s 739 mmHg 27%
    17:00 +42°C° 0 mm 4 m/s 738 mmHg 27%
    18:00 +41°C° 0 mm 5 m/s 739 mmHg 32%
    19:00 +39°C° 0 mm 6 m/s 739 mmHg 37%
    20:00 +36°C° 0 mm 7 m/s 740 mmHg 42%
    21:00 +35°C° 0.6 mm 6 m/s 740 mmHg 44%
    22:00 +33°C° 0.6 mm 6 m/s 741 mmHg 46%
    23:00 +32°C° 0.6 mm 5 m/s 741 mmHg 48%

    5 Iunie, Vineri

    Timp Temperatura Precipitaţii Vânt Presiune Umiditate
    00:00 +32°C° 0 mm 5 m/s 741 mmHg 47%
    01:00 +32°C° 0 mm 5 m/s 741 mmHg 45%
    02:00 +32°C° 0 mm 4 m/s 740 mmHg 44%
    03:00 +32°C° 0.1 mm 4 m/s 740 mmHg 45%
    04:00 +31°C° 0.1 mm 3 m/s 740 mmHg 47%
    05:00 +30°C° 0.1 mm 2 m/s 740 mmHg 48%
    06:00 +31°C° 0 mm 3 m/s 740 mmHg 47%
    07:00 +34°C° 0 mm 4 m/s 741 mmHg 47%
    08:00 +35°C° 0 mm 6 m/s 741 mmHg 46%
    09:00 +36°C° 0 mm 6 m/s 741 mmHg 44%
    10:00 +38°C° 0 mm 6 m/s 741 mmHg 42%
    11:00 +40°C° 0 mm 6 m/s 741 mmHg 40%
    12:00 +41°C° 0 mm 5 m/s 741 mmHg 37%
    13:00 +42°C° 0 mm 5 m/s 740 mmHg 33%
    14:00 +43°C° 0 mm 4 m/s 740 mmHg 30%
    15:00 +43°C° 0 mm 4 m/s 739 mmHg 28%
    16:00 +43°C° 0 mm 4 m/s 739 mmHg 26%
    17:00 +44°C° 0 mm 4 m/s 739 mmHg 24%
    18:00 +40°C° 0.5 mm 5 m/s 739 mmHg 33%
    19:00 +36°C° 0.5 mm 7 m/s 740 mmHg 41%
    20:00 +33°C° 0.5 mm 8 m/s 740 mmHg 49%
    21:00 +33°C° 0.9 mm 7 m/s 740 mmHg 49%
    22:00 +33°C° 0.9 mm 6 m/s 740 mmHg 50%
    23:00 +33°C° 0.9 mm 5 m/s 741 mmHg 50%
    Arată mai mult